This is the latest recevied weather packets stored in our database for station/object W3BRL. If no packets are shown the sender has not sent any weather packets the latest 10 day(s).
| Time | Temp. | Humidity | Pressure | Rain* | Wind** | Luminosity | Snow |
|---|---|---|---|---|---|---|---|
| 1777669172 | 7.78° C | 86% | 1009.5 hPa | 0 mm | - | 30 W/m² | - |
| 1777668869 | 7.78° C | 85% | 1009.4 hPa | 0 mm | - | 26 W/m² | - |
| 1777668566 | 7.78° C | 85% | 1009.3 hPa | 0 mm | - | 35 W/m² | - |
| 1777668262 | 7.78° C | 84% | 1009.1 hPa | 0 mm | - | 46 W/m² | - |
| 1777667959 | 7.78° C | 85% | 1008.9 hPa | 1.27 mm | - | 53 W/m² | - |
| 1777667655 | 8.33° C | 84% | 1009 hPa | 1.27 mm | - | 48 W/m² | - |
| 1777667353 | 8.33° C | 83% | 1008.9 hPa | 1.78 mm | - | 64 W/m² | - |
| 1777667050 | 8.33° C | 82% | 1009.1 hPa | 1.78 mm | - | 110 W/m² | - |
| 1777666747 | 8.89° C | 80% | 1009.1 hPa | 0 mm | - | 73 W/m² | - |
| 1777666443 | 8.89° C | 79% | 1009.2 hPa | 0 mm | - | 71 W/m² | - |
| 1777666140 | 8.89° C | 77% | 1009.3 hPa | 0 mm | - | 49 W/m² | - |
| 1777665837 | 9.44° C | 76% | 1009.1 hPa | 1.27 mm | - | 45 W/m² | - |
| 1777665535 | 9.44° C | 76% | 1009 hPa | 1.27 mm | - | 74 W/m² | - |
| 1777665230 | 9.44° C | 73% | 1009 hPa | 0 mm | - | 106 W/m² | - |
| 1777664927 | 10° C | 73% | 1009.1 hPa | 0 mm | - | 122 W/m² | - |
| 1777664623 | 10° C | 75% | 1008.9 hPa | 0 mm | - | 133 W/m² | - |
| 1777664319 | 10° C | 73% | 1009.1 hPa | 0 mm | - | 291 W/m² | - |
| 1777664018 | 10° C | 73% | 1009 hPa | 0 mm | - | 111 W/m² | - |
| 1777663715 | 10° C | 71% | 1008.9 hPa | 0 mm | - | 127 W/m² | - |
| 1777663412 | 10° C | 71% | 1009.1 hPa | 0 mm | - | 173 W/m² | - |
| 1777663109 | 10° C | 72% | 1008.9 hPa | 0 mm | - | 190 W/m² | - |
| 1777662806 | 10.56° C | 73% | 1008.8 hPa | 0 mm | - | 185 W/m² | - |
| 1777662503 | 10° C | 72% | 1008.9 hPa | 0 mm | - | 318 W/m² | - |
| 1777662199 | 10° C | 73% | 1009.1 hPa | 0 mm | - | 313 W/m² | - |
| 1777661894 | 10° C | 75% | 1009.2 hPa | 0 mm | - | 363 W/m² | - |
* Rain latest hour (hover to see other rain measurements)
** Current wind speed in m/s (hover to see current wind gust speed)